Time,TemperatureF,DewpointF,PressureIn,WindDirection,WindDirectionDegrees,WindSpeedMPH,WindSpeedGustMPH,Humidity,HourlyPrecipIn,Conditions,Clouds,dailyrainin,SoftwareType,DateUTC
2013-01-25 00:04:00,11.5,2.7,30.41,NW,312,9.0,13.0,67,0.00,,,0.00,Wunderground v.1.15,2013-01-25 05:04:00,
2013-01-25 00:09:00,11.5,2.7,30.40,WNW,283,9.0,29.0,67,0.00,,,0.00,Wunderground v.1.15,2013-01-25 05:09:00,
2013-01-25 00:14:00,11.5,2.7,30.40,WNW,288,10.0,29.0,67,0.00,,,0.00,Wunderground v.1.15,2013-01-25 05:14:00,
2013-01-25 00:20:00,11.4,2.6,30.41,West,278,9.0,9.0,67,0.00,,,0.00,Wunderground v.1.15,2013-01-25 05:20:00,
2013-01-25 00:25:00,11.4,2.9,30.42,WNW,283,7.0,29.0,68,0.00,,,0.00,Wunderground v.1.15,2013-01-25 05:25:00,
2013-01-25 00:30:00,11.3,2.8,30.42,West,263,7.0,7.0,68,0.00,,,0.00,Wunderground v.1.15,2013-01-25 05:30:00,
2013-01-25 00:39:00,11.2,2.7,30.42,WNW,286,6.0,6.0,68,0.00,,,0.00,Wunderground v.1.15,2013-01-25 05:39:00,
2013-01-25 00:44:00,11.1,2.9,30.41,WNW,286,7.0,7.0,69,0.00,,,0.00,Wunderground v.1.15,2013-01-25 05:44:00,
2013-01-25 00:49:00,11.1,2.9,30.41,West,264,7.0,29.0,69,0.00,,,0.00,Wunderground v.1.15,2013-01-25 05:49:00,
2013-01-25 00:55:00,11.1,2.9,30.41,WNW,282,9.0,29.0,69,0.00,,,0.00,Wunderground v.1.15,2013-01-25 05:55:00,
2013-01-25 01:00:00,11.2,3.0,30.41,West,269,10.0,10.0,69,0.00,,,0.00,Wunderground v.1.15,2013-01-25 06:00:00,
2013-01-25 01:09:00,11.1,2.9,30.42,WNW,302,8.0,29.0,69,0.00,,,0.00,Wunderground v.1.15,2013-01-25 06:09:00,
2013-01-25 01:19:00,10.9,3.0,30.41,WNW,289,8.0,8.0,70,0.00,,,0.00,Wunderground v.1.15,2013-01-25 06:19:00,
2013-01-25 01:24:00,10.9,3.0,30.42,WSW,250,7.0,29.0,70,0.00,,,0.00,Wunderground v.1.15,2013-01-25 06:24:00,
2013-01-25 01:30:00,10.8,2.9,30.42,NW,307,7.0,29.0,70,0.00,,,0.00,Wunderground v.1.15,2013-01-25 06:30:00,
2013-01-25 01:35:00,10.8,3.2,30.42,West,281,7.0,29.0,71,0.00,,,0.00,Wunderground v.1.15,2013-01-25 06:35:00,
2013-01-25 01:40:00,10.7,3.1,30.42,West,281,7.0,7.0,71,0.00,,,0.00,Wunderground v.1.15,2013-01-25 06:40:00,
2013-01-25 01:45:00,10.7,3.1,30.42,West,267,6.0,29.0,71,0.00,,,0.00,Wunderground v.1.15,2013-01-25 06:45:00,
2013-01-25 01:50:00,10.6,3.0,30.42,WNW,292,5.0,5.0,71,0.00,,,0.00,Wunderground v.1.15,2013-01-25 06:50:00,
2013-01-25 01:59:00,10.3,3.1,30.42,WNW,294,6.0,6.0,72,0.00,,,0.00,Wunderground v.1.15,2013-01-25 06:59:00,
2013-01-25 02:05:00,10.2,3.0,30.42,WNW,286,6.0,29.0,72,0.00,,,0.00,Wunderground v.1.15,2013-01-25 07:05:00,
2013-01-25 02:10:00,10.2,3.3,30.42,WNW,287,6.0,29.0,73,0.00,,,0.00,Wunderground v.1.15,2013-01-25 07:10:00,
2013-01-25 02:15:00,10.1,3.2,30.42,WNW,296,6.0,29.0,73,0.00,,,0.00,Wunderground v.1.15,2013-01-25 07:15:00,
2013-01-25 02:24:00,9.8,3.2,30.42,WNW,292,7.0,8.0,74,0.00,,,0.00,Wunderground v.1.15,2013-01-25 07:24:00,
2013-01-25 02:29:00,9.6,3.0,30.42,West,270,7.0,7.0,74,0.00,,,0.00,Wunderground v.1.15,2013-01-25 07:29:00,
2013-01-25 02:34:00,9.4,3.1,30.43,West,271,6.0,29.0,75,0.00,,,0.00,Wunderground v.1.15,2013-01-25 07:34:00,
2013-01-25 02:40:00,9.3,3.0,30.43,NW,307,7.0,7.0,75,0.00,,,0.00,Wunderground v.1.15,2013-01-25 07:40:00,
2013-01-25 02:45:00,9.1,2.8,30.43,WNW,286,7.0,29.0,75,0.00,,,0.00,Wunderground v.1.15,2013-01-25 07:45:00,
2013-01-25 02:50:00,9.0,2.7,30.42,West,268,7.0,29.0,75,0.00,,,0.00,Wunderground v.1.15,2013-01-25 07:50:00,
2013-01-25 02:59:00,8.8,2.5,30.43,WNW,291,7.0,7.0,75,0.00,,,0.00,Wunderground v.1.15,2013-01-25 07:59:00,
2013-01-25 03:04:00,8.6,2.3,30.42,WNW,285,7.0,29.0,75,0.00,,,0.00,Wunderground v.1.15,2013-01-25 08:04:00,
2013-01-25 03:09:00,8.4,2.1,30.42,WNW,285,7.0,7.0,75,0.00,,,0.00,Wunderground v.1.15,2013-01-25 08:09:00,
2013-01-25 03:15:00,8.3,2.0,30.42,WNW,302,6.0,29.0,75,0.00,,,0.00,Wunderground v.1.15,2013-01-25 08:15:00,
2013-01-25 03:20:00,8.2,1.9,30.42,WNW,294,7.0,7.0,75,0.00,,,0.00,Wunderground v.1.15,2013-01-25 08:20:00,
2013-01-25 03:25:00,8.2,1.9,30.42,WNW,289,7.0,29.0,75,0.00,,,0.00,Wunderground v.1.15,2013-01-25 08:25:00,
2013-01-25 03:30:00,8.0,2.0,30.42,NW,320,6.0,29.0,76,0.00,,,0.00,Wunderground v.1.15,2013-01-25 08:30:00,
2013-01-25 03:35:00,8.0,2.0,30.42,WNW,298,7.0,29.0,76,0.00,,,0.00,Wunderground v.1.15,2013-01-25 08:35:00,
2013-01-25 03:44:00,8.0,1.7,30.42,WNW,296,7.0,29.0,75,0.00,,,0.00,Wunderground v.1.15,2013-01-25 08:44:00,
2013-01-25 03:49:00,8.0,1.7,30.41,WNW,298,6.0,6.0,75,0.00,,,0.00,Wunderground v.1.15,2013-01-25 08:49:00,
2013-01-25 03:55:00,7.9,1.6,30.42,WNW,289,5.0,6.0,75,0.00,,,0.00,Wunderground v.1.15,2013-01-25 08:55:00,
2013-01-25 04:04:00,7.9,1.6,30.42,WSW,249,4.0,5.0,75,0.00,,,0.00,Wunderground v.1.15,2013-01-25 09:04:00,
2013-01-25 04:09:00,7.9,1.6,30.43,WNW,303,4.0,4.0,75,0.00,,,0.00,Wunderground v.1.15,2013-01-25 09:09:00,
2013-01-25 04:14:00,7.8,1.5,30.43,WNW,290,4.0,4.0,75,0.00,,,0.00,Wunderground v.1.15,2013-01-25 09:14:00,
2013-01-25 04:20:00,7.7,1.4,30.42,WNW,286,3.0,7.0,75,0.00,,,0.00,Wunderground v.1.15,2013-01-25 09:20:00,
2013-01-25 04:25:00,7.7,1.7,30.42,WNW,302,3.0,7.0,76,0.00,,,0.00,Wunderground v.1.15,2013-01-25 09:25:00,
2013-01-25 04:30:00,7.6,1.6,30.42,WNW,284,4.0,4.0,76,0.00,,,0.00,Wunderground v.1.15,2013-01-25 09:30:00,
2013-01-25 04:39:00,7.6,1.6,30.42,NW,313,3.0,14.0,76,0.00,,,0.00,Wunderground v.1.15,2013-01-25 09:39:00,
2013-01-25 04:44:00,7.6,1.6,30.42,WNW,284,4.0,14.0,76,0.00,,,0.00,Wunderground v.1.15,2013-01-25 09:44:00,
2013-01-25 04:49:00,7.6,1.3,30.42,WNW,293,3.0,3.0,75,0.00,,,0.00,Wunderground v.1.15,2013-01-25 09:49:00,
2013-01-25 04:54:00,7.6,1.3,30.42,West,269,3.0,4.0,75,0.00,,,0.00,Wunderground v.1.15,2013-01-25 09:54:00,
2013-01-25 05:00:00,7.6,1.6,30.42,WNW,288,3.0,3.0,76,0.00,,,0.00,Wunderground v.1.15,2013-01-25 10:00:00,
2013-01-25 05:05:00,7.7,1.4,30.42,WNW,298,4.0,8.0,75,0.00,,,0.00,Wunderground v.1.15,2013-01-25 10:05:00,
2013-01-25 05:10:00,7.7,1.4,30.42,WNW,289,4.0,4.0,75,0.00,,,0.00,Wunderground v.1.15,2013-01-25 10:10:00,
2013-01-25 05:19:00,7.6,1.3,30.42,West,270,3.0,3.0,75,0.00,,,0.00,Wunderground v.1.15,2013-01-25 10:19:00,
2013-01-25 05:24:00,7.5,1.2,30.41,WNW,299,3.0,6.0,75,0.00,,,0.00,Wunderground v.1.15,2013-01-25 10:24:00,
2013-01-25 05:29:00,7.4,1.1,30.41,NNW,331,3.0,14.0,75,0.00,,,0.00,Wunderground v.1.15,2013-01-25 10:29:00,
2013-01-25 05:35:00,7.4,1.1,30.41,WNW,293,3.0,14.0,75,0.00,,,0.00,Wunderground v.1.15,2013-01-25 10:35:00,
2013-01-25 05:40:00,7.4,1.1,30.41,WNW,294,4.0,14.0,75,0.00,,,0.00,Wunderground v.1.15,2013-01-25 10:40:00,
2013-01-25 05:45:00,7.3,1.0,30.41,NW,305,3.0,14.0,75,0.00,,,0.00,Wunderground v.1.15,2013-01-25 10:45:00,
2013-01-25 05:54:00,7.1,0.8,30.41,WNW,288,2.0,14.0,75,0.00,,,0.00,Wunderground v.1.15,2013-01-25 10:54:00,
2013-01-25 05:59:00,7.1,0.8,30.41,West,280,2.0,2.0,75,0.00,,,0.00,Wunderground v.1.15,2013-01-25 10:59:00,
2013-01-25 06:04:00,7.0,0.7,30.41,WNW,302,1.0,14.0,75,0.00,,,0.00,Wunderground v.1.15,2013-01-25 11:04:00,
2013-01-25 06:10:00,6.9,0.6,30.41,WNW,294,1.0,1.0,75,0.00,,,0.00,Wunderground v.1.15,2013-01-25 11:10:00,
2013-01-25 06:15:00,6.9,0.6,30.41,WNW,289,1.0,14.0,75,0.00,,,0.00,Wunderground v.1.15,2013-01-25 11:15:00,
2013-01-25 06:20:00,6.9,0.9,30.41,WNW,302,0.0,14.0,76,0.00,,,0.00,Wunderground v.1.15,2013-01-25 11:20:00,
2013-01-25 06:30:00,6.8,0.8,30.41,WNW,302,0.0,14.0,76,0.00,,,0.00,Wunderground v.1.15,2013-01-25 11:30:00,
2013-01-25 06:39:00,6.8,0.8,30.41,WNW,302,0.0,14.0,76,0.00,,,0.00,Wunderground v.1.15,2013-01-25 11:39:00,
2013-01-25 06:44:00,6.8,0.8,30.41,WNW,302,0.0,14.0,76,0.00,,,0.00,Wunderground v.1.15,2013-01-25 11:44:00,
2013-01-25 06:50:00,6.8,0.8,30.41,WNW,302,0.0,14.0,76,0.00,,,0.00,Wunderground v.1.15,2013-01-25 11:50:00,
2013-01-25 06:55:00,6.7,0.7,30.42,WNW,302,0.0,14.0,76,0.00,,,0.00,Wunderground v.1.15,2013-01-25 11:55:00,
2013-01-25 07:00:00,6.7,1.0,30.42,WNW,302,0.0,14.0,77,0.00,,,0.00,Wunderground v.1.15,2013-01-25 12:00:00,
2013-01-25 07:05:00,6.7,1.0,30.42,WNW,302,0.0,14.0,77,0.00,,,0.00,Wunderground v.1.15,2013-01-25 12:05:00,
2013-01-25 07:14:00,6.7,1.0,30.43,WNW,302,0.0,14.0,77,0.00,,,0.00,Wunderground v.1.15,2013-01-25 12:14:00,
2013-01-25 07:19:00,6.7,1.3,30.43,WNW,302,0.0,14.0,78,0.00,,,0.00,Wunderground v.1.15,2013-01-25 12:19:00,
2013-01-25 07:25:00,6.7,1.3,30.43,WNW,302,0.0,14.0,78,0.00,,,0.00,Wunderground v.1.15,2013-01-25 12:25:00,
2013-01-25 07:30:00,6.5,1.1,30.43,WNW,302,0.0,14.0,78,0.00,,,0.00,Wunderground v.1.15,2013-01-25 12:30:00,
2013-01-25 07:35:00,6.2,0.8,30.43,WNW,302,0.0,14.0,78,0.00,,,0.00,Wunderground v.1.15,2013-01-25 12:35:00,
2013-01-25 07:40:00,5.9,0.8,30.44,WNW,302,0.0,14.0,79,0.00,,,0.00,Wunderground v.1.15,2013-01-25 12:40:00,
2013-01-25 07:45:00,5.8,0.7,30.44,WNW,302,0.0,14.0,79,0.00,,,0.00,Wunderground v.1.15,2013-01-25 12:45:00,
2013-01-25 07:54:00,5.6,0.8,30.43,WNW,302,0.0,14.0,80,0.00,,,0.00,Wunderground v.1.15,2013-01-25 12:54:00,
2013-01-25 07:59:00,5.6,1.0,30.44,WNW,302,0.0,14.0,81,0.00,,,0.00,Wunderground v.1.15,2013-01-25 12:59:00,
2013-01-25 08:05:00,5.7,1.1,30.43,WNW,302,0.0,14.0,81,0.00,,,0.00,Wunderground v.1.15,2013-01-25 13:05:00,
2013-01-25 08:10:00,5.9,1.3,30.43,WNW,302,0.0,14.0,81,0.00,,,0.00,Wunderground v.1.15,2013-01-25 13:10:00,
2013-01-25 08:15:00,6.3,1.4,30.43,WNW,302,0.0,14.0,80,0.00,,,0.00,Wunderground v.1.15,2013-01-25 13:15:00,
2013-01-25 08:20:00,6.7,1.6,30.43,WNW,302,1.0,14.0,79,0.00,,,0.00,Wunderground v.1.15,2013-01-25 13:20:00,
2013-01-25 08:29:00,7.7,2.3,30.43,NW,313,2.0,2.0,78,0.00,,,0.00,Wunderground v.1.15,2013-01-25 13:29:00,
2013-01-25 08:34:00,8.2,2.2,30.43,WNW,300,4.0,4.0,76,0.00,,,0.00,Wunderground v.1.15,2013-01-25 13:34:00,
2013-01-25 08:39:00,8.6,2.6,30.43,NW,304,3.0,14.0,76,0.00,,,0.00,Wunderground v.1.15,2013-01-25 13:39:00,
2013-01-25 08:45:00,9.1,2.2,30.44,WNW,282,3.0,14.0,73,0.00,,,0.00,Wunderground v.1.15,2013-01-25 13:45:00,
2013-01-25 08:50:00,9.5,2.3,30.43,NNW,333,4.0,14.0,72,0.00,,,0.00,Wunderground v.1.15,2013-01-25 13:50:00,
2013-01-25 08:55:00,9.7,2.2,30.44,WNW,300,4.0,14.0,71,0.00,,,0.00,Wunderground v.1.15,2013-01-25 13:55:00,
2013-01-25 09:00:00,9.7,1.6,30.44,West,264,5.0,5.0,69,0.00,,,0.00,Wunderground v.1.15,2013-01-25 14:00:00,
2013-01-25 09:09:00,10.4,2.2,30.43,West,270,3.0,3.0,69,0.00,,,0.00,Wunderground v.1.15,2013-01-25 14:09:00,
2013-01-25 09:14:00,10.6,2.1,30.43,West,263,3.0,4.0,68,0.00,,,0.00,Wunderground v.1.15,2013-01-25 14:14:00,
2013-01-25 09:20:00,10.8,2.0,30.43,WNW,287,5.0,5.0,67,0.00,,,0.00,Wunderground v.1.15,2013-01-25 14:20:00,
2013-01-25 09:25:00,11.1,2.3,30.43,West,275,5.0,14.0,67,0.00,,,0.00,Wunderground v.1.15,2013-01-25 14:25:00,
2013-01-25 09:30:00,11.2,2.0,30.43,West,268,5.0,14.0,66,0.00,,,0.00,Wunderground v.1.15,2013-01-25 14:30:00,
2013-01-25 09:35:00,11.2,1.7,30.42,West,272,5.0,14.0,65,0.00,,,0.00,Wunderground v.1.15,2013-01-25 14:35:00,
2013-01-25 09:44:00,11.6,2.4,30.42,WNW,283,4.0,7.0,66,0.00,,,0.00,Wunderground v.1.15,2013-01-25 14:44:00,
2013-01-25 09:49:00,11.9,2.0,30.42,NW,305,4.0,14.0,64,0.00,,,0.00,Wunderground v.1.15,2013-01-25 14:49:00,
2013-01-25 09:55:00,12.1,1.9,30.41,NW,307,5.0,14.0,63,0.00,,,0.00,Wunderground v.1.15,2013-01-25 14:55:00,
2013-01-25 10:00:00,12.2,1.7,30.42,West,271,5.0,5.0,62,0.00,,,0.00,Wunderground v.1.15,2013-01-25 15:00:00,
2013-01-25 10:05:00,12.3,1.7,30.42,SW,222,4.0,14.0,62,0.00,,,0.00,Wunderground v.1.15,2013-01-25 15:05:00,
2013-01-25 10:10:00,12.7,2.5,30.42,WSW,246,3.0,3.0,63,0.00,,,0.00,Wunderground v.1.15,2013-01-25 15:10:00,
2013-01-25 10:19:00,13.0,2.4,30.42,SW,227,4.0,14.0,62,0.00,,,0.00,Wunderground v.1.15,2013-01-25 15:19:00,
2013-01-25 10:24:00,13.2,2.3,30.41,West,267,4.0,14.0,61,0.00,,,0.00,Wunderground v.1.15,2013-01-25 15:24:00,
2013-01-25 10:29:00,13.5,1.8,30.41,West,276,3.0,14.0,59,0.00,,,0.00,Wunderground v.1.15,2013-01-25 15:29:00,
2013-01-25 10:34:00,13.5,1.8,30.41,WNW,284,3.0,14.0,59,0.00,,,0.00,Wunderground v.1.15,2013-01-25 15:34:00,
2013-01-25 10:40:00,13.8,1.7,30.41,West,271,3.0,3.0,58,0.00,,,0.00,Wunderground v.1.15,2013-01-25 15:40:00,
2013-01-25 10:45:00,14.2,2.1,30.41,WSW,257,3.0,14.0,58,0.00,,,0.00,Wunderground v.1.15,2013-01-25 15:45:00,
2013-01-25 10:50:00,14.1,1.3,30.40,SW,226,3.0,3.0,56,0.00,,,0.00,Wunderground v.1.15,2013-01-25 15:50:00,
2013-01-25 10:59:00,14.7,1.8,30.40,WSW,238,3.0,14.0,56,0.00,,,0.00,Wunderground v.1.15,2013-01-25 15:59:00,
2013-01-25 11:04:00,14.5,2.0,30.40,SW,228,3.0,14.0,57,0.00,,,0.00,Wunderground v.1.15,2013-01-25 16:04:00,
2013-01-25 11:09:00,14.7,1.8,30.39,West,263,3.0,14.0,56,0.00,,,0.00,Wunderground v.1.15,2013-01-25 16:09:00,
2013-01-25 11:15:00,15.2,2.3,30.39,West,264,3.0,14.0,56,0.00,,,0.00,Wunderground v.1.15,2013-01-25 16:15:00,
2013-01-25 11:20:00,15.5,1.8,30.39,SW,225,3.0,14.0,54,0.00,,,0.00,Wunderground v.1.15,2013-01-25 16:20:00,
2013-01-25 11:25:00,15.8,2.5,30.38,WNW,293,3.0,14.0,55,0.00,,,0.00,Wunderground v.1.15,2013-01-25 16:25:00,
2013-01-25 11:34:00,16.4,2.2,30.38,WSW,247,3.0,14.0,53,0.00,,,0.00,Wunderground v.1.15,2013-01-25 16:34:00,
2013-01-25 11:39:00,16.9,2.7,30.37,SW,231,2.0,2.0,53,0.00,,,0.00,Wunderground v.1.15,2013-01-25 16:39:00,
2013-01-25 11:44:00,17.4,2.8,30.36,West,281,1.0,14.0,52,0.00,,,0.00,Wunderground v.1.15,2013-01-25 16:44:00,
2013-01-25 11:50:00,17.4,1.5,30.36,WNW,286,2.0,14.0,49,0.00,,,0.00,Wunderground v.1.15,2013-01-25 16:50:00,
2013-01-25 11:55:00,17.3,0.9,30.35,WNW,301,2.0,14.0,48,0.00,,,0.00,Wunderground v.1.15,2013-01-25 16:55:00,
2013-01-25 12:00:00,17.2,0.8,30.35,West,276,2.0,14.0,48,0.00,,,0.00,Wunderground v.1.15,2013-01-25 17:00:00,
2013-01-25 12:09:00,16.9,1.0,30.34,WSW,243,3.0,3.0,49,0.00,,,0.00,Wunderground v.1.15,2013-01-25 17:09:00,
2013-01-25 12:14:00,17.3,1.4,30.34,West,273,2.0,14.0,49,0.00,,,0.00,Wunderground v.1.15,2013-01-25 17:14:00,
2013-01-25 12:19:00,17.4,1.0,30.34,SW,232,2.0,2.0,48,0.00,,,0.00,Wunderground v.1.15,2013-01-25 17:19:00,
2013-01-25 12:25:00,17.5,1.1,30.33,WSW,240,2.0,14.0,48,0.00,,,0.00,Wunderground v.1.15,2013-01-25 17:25:00,
2013-01-25 12:30:00,17.7,0.9,30.33,SW,220,1.0,14.0,47,0.00,,,0.00,Wunderground v.1.15,2013-01-25 17:30:00,
2013-01-25 12:35:00,17.9,1.0,30.32,NNW,345,2.0,14.0,47,0.00,,,0.00,Wunderground v.1.15,2013-01-25 17:35:00,
2013-01-25 12:40:00,18.4,1.0,30.31,North,355,2.0,2.0,46,0.00,,,0.00,Wunderground v.1.15,2013-01-25 17:40:00,
2013-01-25 12:49:00,19.2,1.3,30.30,NW,304,0.0,14.0,45,0.00,,,0.00,Wunderground v.1.15,2013-01-25 17:49:00,
2013-01-25 12:55:00,19.2,1.3,30.30,WNW,292,1.0,14.0,45,0.00,,,0.00,Wunderground v.1.15,2013-01-25 17:55:00,
2013-01-25 13:00:00,19.3,1.9,30.30,WNW,300,1.0,1.0,46,0.00,,,0.00,Wunderground v.1.15,2013-01-25 18:00:00,
2013-01-25 13:05:00,19.3,0.9,30.29,WNW,300,0.0,1.0,44,0.00,,,0.00,Wunderground v.1.15,2013-01-25 18:05:00,
2013-01-25 13:14:00,19.6,2.1,30.30,WNW,300,0.0,0.0,46,0.00,,,0.00,Wunderground v.1.15,2013-01-25 18:14:00,
2013-01-25 13:19:00,19.7,0.8,30.29,WNW,301,0.0,0.0,43,0.00,,,0.00,Wunderground v.1.15,2013-01-25 18:19:00,
2013-01-25 13:25:00,19.9,2.4,30.28,WNW,301,0.0,0.0,46,0.00,,,0.00,Wunderground v.1.15,2013-01-25 18:25:00,
2013-01-25 13:30:00,20.2,2.2,30.28,WNW,303,0.0,1.0,45,0.00,,,0.00,Wunderground v.1.15,2013-01-25 18:30:00,
2013-01-25 13:35:00,20.4,0.9,30.27,WNW,303,0.0,6.0,42,0.00,,,0.00,Wunderground v.1.15,2013-01-25 18:35:00,
2013-01-25 13:40:00,20.4,1.9,30.27,NW,308,0.0,6.0,44,0.00,,,0.00,Wunderground v.1.15,2013-01-25 18:40:00,
2013-01-25 13:49:00,20.8,0.8,30.27,NW,308,0.0,6.0,41,0.00,,,0.00,Wunderground v.1.15,2013-01-25 18:49:00,
2013-01-25 13:54:00,20.8,0.8,30.26,NW,308,0.0,6.0,41,0.00,,,0.00,Wunderground v.1.15,2013-01-25 18:54:00,
2013-01-25 13:59:00,20.9,0.3,30.26,ESE,121,0.0,6.0,40,0.00,,,0.00,Wunderground v.1.15,2013-01-25 18:59:00,
2013-01-25 14:04:00,20.8,1.3,30.26,SSE,151,0.0,6.0,42,0.00,,,0.00,Wunderground v.1.15,2013-01-25 19:04:00,
2013-01-25 14:10:00,20.3,0.8,30.26,SSE,159,1.0,1.0,42,0.00,,,0.00,Wunderground v.1.15,2013-01-25 19:10:00,
2013-01-25 14:15:00,20.1,0.6,30.26,SSE,159,1.0,6.0,42,0.00,,,0.00,Wunderground v.1.15,2013-01-25 19:15:00,
2013-01-25 14:20:00,19.9,0.5,30.26,SSE,162,1.0,6.0,42,0.00,,,0.00,Wunderground v.1.15,2013-01-25 19:20:00,
2013-01-25 14:29:00,18.4,3.7,30.26,SSE,162,4.0,4.0,52,0.00,,,0.00,Wunderground v.1.15,2013-01-25 19:29:00,
2013-01-25 14:35:00,18.3,5.2,30.25,South,177,2.0,6.0,56,0.00,,,0.00,Wunderground v.1.15,2013-01-25 19:35:00,
2013-01-25 14:40:00,18.4,4.9,30.25,SE,146,1.0,6.0,55,0.00,,,0.00,Wunderground v.1.15,2013-01-25 19:40:00,
2013-01-25 14:45:00,18.5,5.0,30.25,SE,126,1.0,6.0,55,0.00,,,0.00,Wunderground v.1.15,2013-01-25 19:45:00,
2013-01-25 14:50:00,18.4,4.9,30.25,South,170,1.0,6.0,55,0.00,,,0.00,Wunderground v.1.15,2013-01-25 19:50:00,
2013-01-25 14:55:00,18.3,5.2,30.25,SE,140,1.0,6.0,56,0.00,,,0.00,Wunderground v.1.15,2013-01-25 19:55:00,
2013-01-25 15:04:00,18.2,5.1,30.24,SSE,151,0.0,6.0,56,0.00,,,0.00,Wunderground v.1.15,2013-01-25 20:04:00,
2013-01-25 15:09:00,18.1,5.0,30.24,East,99,0.0,6.0,56,0.00,,,0.00,Wunderground v.1.15,2013-01-25 20:09:00,
2013-01-25 15:14:00,18.0,4.9,30.24,East,88,0.0,6.0,56,0.00,,,0.00,Wunderground v.1.15,2013-01-25 20:14:00,
2013-01-25 15:20:00,17.9,4.0,30.24,East,86,0.0,6.0,54,0.00,,,0.00,Wunderground v.1.15,2013-01-25 20:20:00,
2013-01-25 15:25:00,17.9,4.8,30.24,East,86,0.0,6.0,56,0.00,,,0.00,Wunderground v.1.15,2013-01-25 20:25:00,
2013-01-25 15:30:00,17.8,4.3,30.24,East,99,0.0,6.0,55,0.00,,,0.00,Wunderground v.1.15,2013-01-25 20:30:00,
2013-01-25 15:39:00,17.2,4.6,30.25,South,179,1.0,1.0,57,0.00,,,0.00,Wunderground v.1.15,2013-01-25 20:39:00,
2013-01-25 15:44:00,17.0,4.4,30.25,SSE,160,1.0,6.0,57,0.00,,,0.00,Wunderground v.1.15,2013-01-25 20:44:00,
2013-01-25 15:49:00,17.0,4.0,30.24,SSE,160,0.0,6.0,56,0.00,,,0.00,Wunderground v.1.15,2013-01-25 20:49:00,
2013-01-25 15:54:00,17.0,5.1,30.24,SSE,160,0.0,6.0,59,0.00,,,0.00,Wunderground v.1.15,2013-01-25 20:54:00,
2013-01-25 16:00:00,17.0,5.1,30.24,SSE,160,0.0,6.0,59,0.00,,,0.00,Wunderground v.1.15,2013-01-25 21:00:00,
2013-01-25 16:05:00,16.8,4.6,30.24,South,171,0.0,6.0,58,0.00,,,0.00,Wunderground v.1.15,2013-01-25 21:05:00,
2013-01-25 16:10:00,16.6,4.7,30.24,South,171,1.0,1.0,59,0.00,,,0.00,Wunderground v.1.15,2013-01-25 21:10:00,
2013-01-25 16:19:00,16.5,5.0,30.23,SSE,154,0.0,6.0,60,0.00,,,0.00,Wunderground v.1.15,2013-01-25 21:19:00,
2013-01-25 16:24:00,16.5,5.4,30.23,SSE,154,0.0,6.0,61,0.00,,,0.00,Wunderground v.1.15,2013-01-25 21:24:00,
2013-01-25 16:29:00,16.5,5.0,30.22,SSE,148,0.0,6.0,60,0.00,,,0.00,Wunderground v.1.15,2013-01-25 21:29:00,
2013-01-25 16:35:00,16.5,5.0,30.22,SSE,148,0.0,6.0,60,0.00,,,0.00,Wunderground v.1.15,2013-01-25 21:35:00,
2013-01-25 16:40:00,16.4,5.3,30.22,SSE,148,0.0,6.0,61,0.00,,,0.00,Wunderground v.1.15,2013-01-25 21:40:00,
2013-01-25 16:45:00,16.3,4.8,30.22,SSE,148,0.0,6.0,60,0.00,,,0.00,Wunderground v.1.15,2013-01-25 21:45:00,
2013-01-25 16:50:00,16.2,4.4,30.21,SSE,148,0.0,6.0,59,0.00,,,0.00,Wunderground v.1.15,2013-01-25 21:50:00,
2013-01-25 16:59:00,16.1,4.6,30.21,SSE,148,0.0,6.0,60,0.00,,,0.00,Wunderground v.1.15,2013-01-25 21:59:00,
2013-01-25 17:04:00,16.0,4.9,30.21,SSE,148,0.0,6.0,61,0.00,,,0.00,Wunderground v.1.15,2013-01-25 22:04:00,
2013-01-25 17:09:00,15.9,5.2,30.20,SSE,148,0.0,6.0,62,0.00,,,0.00,Wunderground v.1.15,2013-01-25 22:09:00,
2013-01-25 17:15:00,15.9,5.2,30.20,East,80,0.0,6.0,62,0.00,,,0.00,Wunderground v.1.15,2013-01-25 22:15:00,
2013-01-25 17:20:00,15.9,4.8,30.20,East,80,0.0,6.0,61,0.00,,,0.00,Wunderground v.1.15,2013-01-25 22:20:00,
2013-01-25 17:25:00,15.8,4.7,30.19,East,80,0.0,6.0,61,0.00,,,0.00,Wunderground v.1.15,2013-01-25 22:25:00,
2013-01-25 17:34:00,15.7,5.3,30.19,East,80,0.0,6.0,63,0.00,,,0.00,Wunderground v.1.15,2013-01-25 22:34:00,
2013-01-25 17:39:00,15.7,5.3,30.19,East,80,0.0,6.0,63,0.00,,,0.00,Wunderground v.1.15,2013-01-25 22:39:00,
2013-01-25 17:44:00,15.6,5.6,30.19,SSE,151,0.0,6.0,64,0.00,,,0.00,Wunderground v.1.15,2013-01-25 22:44:00,
2013-01-25 17:49:00,15.6,5.6,30.19,SSE,151,0.0,6.0,64,0.00,,,0.00,Wunderground v.1.15,2013-01-25 22:49:00,
2013-01-25 17:55:00,15.6,5.2,30.19,SSE,151,0.0,6.0,63,0.00,,,0.00,Wunderground v.1.15,2013-01-25 22:55:00,
2013-01-25 18:00:00,15.6,5.6,30.19,SSE,151,0.0,6.0,64,0.00,,,0.00,Wunderground v.1.15,2013-01-25 23:00:00,
2013-01-25 18:05:00,15.5,5.5,30.19,SSE,151,0.0,6.0,64,0.00,,,0.00,Wunderground v.1.15,2013-01-25 23:05:00,
2013-01-25 18:10:00,15.4,5.4,30.18,SSE,151,0.0,6.0,64,0.00,,,0.00,Wunderground v.1.15,2013-01-25 23:10:00,
2013-01-25 18:19:00,15.3,5.3,30.18,ENE,76,0.0,6.0,64,0.00,,,0.00,Wunderground v.1.15,2013-01-25 23:19:00,
2013-01-25 18:24:00,15.2,4.9,30.17,ENE,76,0.0,6.0,63,0.00,,,0.00,Wunderground v.1.15,2013-01-25 23:24:00,
2013-01-25 18:30:00,15.2,5.2,30.17,ENE,76,0.0,6.0,64,0.00,,,0.00,Wunderground v.1.15,2013-01-25 23:30:00,
2013-01-25 18:35:00,15.1,5.4,30.17,ENE,76,0.0,6.0,65,0.00,,,0.00,Wunderground v.1.15,2013-01-25 23:35:00,
2013-01-25 18:40:00,15.1,6.1,30.17,ENE,76,0.0,6.0,67,0.00,,,0.00,Wunderground v.1.15,2013-01-25 23:40:00,
2013-01-25 18:45:00,15.1,6.1,30.17,ENE,76,0.0,6.0,67,0.00,,,0.00,Wunderground v.1.15,2013-01-25 23:45:00,
2013-01-25 18:50:00,15.0,5.7,30.17,ENE,76,0.0,6.0,66,0.00,,,0.00,Wunderground v.1.15,2013-01-25 23:50:00,
2013-01-25 18:59:00,15.0,6.0,30.17,SE,146,0.0,6.0,67,0.00,,,0.00,Wunderground v.1.15,2013-01-25 23:59:00,
2013-01-25 19:04:00,14.9,6.9,30.17,SSE,147,0.0,6.0,70,0.00,,,0.00,Wunderground v.1.15,2013-01-26 00:04:00,
2013-01-25 19:10:00,14.8,7.7,30.17,SSE,147,0.0,6.0,73,0.00,,,0.00,Wunderground v.1.15,2013-01-26 00:10:00,
2013-01-25 19:15:00,14.7,8.2,30.16,SSE,147,0.0,6.0,75,0.00,,,0.00,Wunderground v.1.15,2013-01-26 00:15:00,
2013-01-25 19:20:00,14.6,8.1,30.16,SSE,147,0.0,6.0,75,0.00,,,0.00,Wunderground v.1.15,2013-01-26 00:20:00,
2013-01-25 19:25:00,14.5,8.0,30.16,SSE,147,0.0,6.0,75,0.00,,,0.00,Wunderground v.1.15,2013-01-26 00:25:00,
2013-01-25 19:34:00,14.3,8.4,30.15,SSE,147,0.0,6.0,77,0.00,,,0.00,Wunderground v.1.15,2013-01-26 00:34:00,
2013-01-25 19:39:00,14.2,8.6,30.15,SSE,147,0.0,6.0,78,0.00,,,0.00,Wunderground v.1.15,2013-01-26 00:39:00,
2013-01-25 19:44:00,14.1,8.8,30.15,SSE,147,0.0,6.0,79,0.00,,,0.00,Wunderground v.1.15,2013-01-26 00:44:00,
2013-01-25 19:49:00,14.0,8.7,30.14,SSE,147,0.0,6.0,79,0.00,,,0.00,Wunderground v.1.15,2013-01-26 00:49:00,
2013-01-25 19:55:00,13.9,8.9,30.14,SSE,147,0.0,6.0,80,0.00,,,0.00,Wunderground v.1.15,2013-01-26 00:55:00,
2013-01-25 20:00:00,13.8,8.8,30.14,SSE,147,0.0,6.0,80,0.00,,,0.00,Wunderground v.1.15,2013-01-26 01:00:00,
2013-01-25 20:05:00,13.8,9.0,30.14,SSE,147,0.0,6.0,81,0.00,,,0.00,Wunderground v.1.15,2013-01-26 01:05:00,
2013-01-25 20:14:00,13.7,9.2,30.14,SSE,147,0.0,6.0,82,0.00,,,0.00,Wunderground v.1.15,2013-01-26 01:14:00,
2013-01-25 20:19:00,13.7,9.2,30.14,SSE,147,0.0,6.0,82,0.00,,,0.00,Wunderground v.1.15,2013-01-26 01:19:00,
2013-01-25 20:24:00,13.7,9.5,30.14,SSE,147,0.0,6.0,83,0.00,,,0.00,Wunderground v.1.15,2013-01-26 01:24:00,
2013-01-25 20:30:00,13.7,9.5,30.14,SSE,147,0.0,6.0,83,0.00,,,0.00,Wunderground v.1.15,2013-01-26 01:30:00,
2013-01-25 20:35:00,13.6,9.7,30.14,SSE,147,0.0,6.0,84,0.00,,,0.00,Wunderground v.1.15,2013-01-26 01:35:00,
2013-01-25 20:40:00,13.6,9.7,30.13,SSE,147,0.0,6.0,84,0.00,,,0.00,Wunderground v.1.15,2013-01-26 01:40:00,
2013-01-25 20:45:00,13.6,9.7,30.13,SSE,147,0.0,6.0,84,0.00,,,0.00,Wunderground v.1.15,2013-01-26 01:45:00,
2013-01-25 20:54:00,13.6,9.9,30.13,ESE,122,0.0,6.0,85,0.00,,,0.00,Wunderground v.1.15,2013-01-26 01:54:00,
2013-01-25 20:59:00,13.5,9.8,30.13,ESE,122,0.0,6.0,85,0.00,,,0.00,Wunderground v.1.15,2013-01-26 01:59:00,
2013-01-25 21:04:00,13.5,9.8,30.13,ESE,122,0.0,6.0,85,0.00,,,0.00,Wunderground v.1.15,2013-01-26 02:04:00,
2013-01-25 21:10:00,13.4,9.7,30.13,ESE,122,0.0,6.0,85,0.00,,,0.00,Wunderground v.1.15,2013-01-26 02:10:00,
2013-01-25 21:15:00,13.3,9.9,30.13,East,98,0.0,6.0,86,0.00,,,0.00,Wunderground v.1.15,2013-01-26 02:15:00,
2013-01-25 21:20:00,13.3,9.9,30.13,East,98,0.0,6.0,86,0.00,,,0.00,Wunderground v.1.15,2013-01-26 02:20:00,
2013-01-25 21:29:00,13.2,9.8,30.13,East,98,0.0,6.0,86,0.00,,,0.00,Wunderground v.1.15,2013-01-26 02:29:00,
2013-01-25 21:34:00,13.2,9.8,30.13,East,98,0.0,6.0,86,0.00,,,0.00,Wunderground v.1.15,2013-01-26 02:34:00,
2013-01-25 21:39:00,13.2,9.8,30.13,East,98,0.0,6.0,86,0.00,,,0.00,Wunderground v.1.15,2013-01-26 02:39:00,
2013-01-25 21:44:00,13.1,9.7,30.13,East,98,0.0,6.0,86,0.00,,,0.00,Wunderground v.1.15,2013-01-26 02:44:00,
2013-01-25 21:50:00,13.0,9.6,30.13,East,98,0.0,6.0,86,0.00,,,0.00,Wunderground v.1.15,2013-01-26 02:50:00,
2013-01-25 21:55:00,13.0,9.6,30.13,East,98,0.0,6.0,86,0.00,,,0.00,Wunderground v.1.15,2013-01-26 02:55:00,
2013-01-25 22:00:00,12.9,9.5,30.13,East,98,0.0,6.0,86,0.00,,,0.00,Wunderground v.1.15,2013-01-26 03:00:00,
2013-01-25 22:09:00,12.9,9.8,30.12,East,98,0.0,6.0,87,0.00,,,0.00,Wunderground v.1.15,2013-01-26 03:09:00,
2013-01-25 22:14:00,12.9,9.5,30.12,East,98,0.0,6.0,86,0.00,,,0.00,Wunderground v.1.15,2013-01-26 03:14:00,
2013-01-25 22:19:00,12.8,9.4,30.12,East,98,0.0,6.0,86,0.00,,,0.00,Wunderground v.1.15,2013-01-26 03:19:00,
2013-01-25 22:25:00,12.6,9.2,30.12,East,98,0.0,6.0,86,0.00,,,0.00,Wunderground v.1.15,2013-01-26 03:25:00,
2013-01-25 22:30:00,12.6,9.2,30.12,East,98,0.0,6.0,86,0.00,,,0.00,Wunderground v.1.15,2013-01-26 03:30:00,
2013-01-25 22:39:00,12.4,9.3,30.12,East,98,0.0,6.0,87,0.00,,,0.00,Wunderground v.1.15,2013-01-26 03:39:00,
2013-01-25 22:44:00,12.3,9.2,30.12,East,98,0.0,6.0,87,0.00,,,0.00,Wunderground v.1.15,2013-01-26 03:44:00,
2013-01-25 22:49:00,12.3,9.2,30.12,East,98,0.0,6.0,87,0.00,,,0.00,Wunderground v.1.15,2013-01-26 03:49:00,
2013-01-25 22:54:00,12.2,8.8,30.12,East,98,0.0,6.0,86,0.00,,,0.00,Wunderground v.1.15,2013-01-26 03:54:00,
2013-01-25 23:00:00,12.1,9.0,30.12,East,83,0.0,6.0,87,0.00,,,0.00,Wunderground v.1.15,2013-01-26 04:00:00,
2013-01-25 23:05:00,12.0,8.9,30.12,East,83,0.0,6.0,87,0.00,,,0.00,Wunderground v.1.15,2013-01-26 04:05:00,
2013-01-25 23:10:00,11.8,8.7,30.12,East,83,0.0,6.0,87,0.00,,,0.00,Wunderground v.1.15,2013-01-26 04:10:00,
2013-01-25 23:19:00,11.7,8.6,30.12,East,83,0.0,6.0,87,0.00,,,0.00,Wunderground v.1.15,2013-01-26 04:19:00,
2013-01-25 23:24:00,11.6,8.5,30.12,East,83,0.0,6.0,87,0.00,,,0.00,Wunderground v.1.15,2013-01-26 04:24:00,
2013-01-25 23:29:00,11.6,8.5,30.12,East,83,0.0,6.0,87,0.00,,,0.00,Wunderground v.1.15,2013-01-26 04:29:00,
2013-01-25 23:35:00,11.6,8.5,30.12,East,83,0.0,6.0,87,0.00,,,0.00,Wunderground v.1.15,2013-01-26 04:35:00,
2013-01-25 23:40:00,11.6,8.5,30.12,East,83,0.0,6.0,87,0.00,,,0.00,Wunderground v.1.15,2013-01-26 04:40:00,
2013-01-25 23:45:00,11.6,8.5,30.12,East,83,0.0,6.0,87,0.00,,,0.00,Wunderground v.1.15,2013-01-26 04:45:00,
2013-01-25 23:55:00,11.5,8.4,30.12,East,83,0.0,6.0,87,0.00,,,0.00,Wunderground v.1.15,2013-01-26 04:55:00,